owner,sensor,date,latitude,longitude,vertical_datum,direction_of_sea_water_velocity,sea_water_speed,upward_sea_water_velocity,qcFlag 
ADCP,ioos:station:wmo:42390:1,2014-09-01T00:07:00Z,26.1290,-94.8980,63.1,208.0,10.7,2.1,'1111122,1111122,1111122' 
ADCP,ioos:station:wmo:42390:1,2014-09-01T02:07:00Z,26.1290,-94.8980,63.1,165.0,7.0,3.0,'1111122,1111122,1111122' 
ADCP,ioos:station:wmo:42390:1,2014-09-01T02:57:00Z,26.1290,-94.8980,63.1,178.0,10.5,3.8,'1111122,1111122,1111122' 
ADCP,ioos:station:wmo:42390:1,2014-09-01T04:07:00Z,26.1290,-94.8980,63.1,159.0,16.0,6.2,'1111122,1111122,1111122' 
ADCP,ioos:station:wmo:42390:1,2014-09-01T05:07:00Z,26.1290,-94.8980,63.1,153.0,9.4,1.9,'1111122,1111122,1111122' 
ADCP,ioos:station:wmo:42390:1,2014-09-01T06:17:00Z,26.1290,-94.8980,63.2,138.0,7.3,0.1,'1111122,1111122,1111122' 
ADCP,ioos:station:wmo:42390:1,2014-09-01T08:17:00Z,26.1290,-94.8980,63.2,181.0,11.8,6.5,'1111122,1111122,1111122' 
ADCP,ioos:station:wmo:42390:1,2014-09-01T09:17:00Z,26.1290,-94.8980,63.2,175.0,15.2,7.6,'1111122,1111122,1111122' 
ADCP,ioos:station:wmo:42390:1,2014-09-01T10:17:00Z,26.1290,-94.8980,63.2,181.0,16.9,6.7,'1111122,1111122,1111122' 
ADCP,ioos:station:wmo:42390:1,2014-09-01T11:17:00Z,26.1290,-94.8980,63.2,269.0,5.9,0.5,'1111122,1111122,1111122' 
ADCP,ioos:station:wmo:42390:1,2014-09-01T12:17:00Z,26.1290,-94.8980,63.2,251.0,3.6,1.5,'1111122,1111122,1111122' 
ADCP,ioos:station:wmo:42390:1,2014-09-01T13:17:00Z,26.1290,-94.8980,63.2,180.0,0.6,0.0,'1111122,1111122,1114422' 
ADCP,ioos:station:wmo:42390:1,2014-09-01T14:17:00Z,26.1290,-94.8980,63.2,168.0,17.7,6.1,'1111122,1111122,1111122' 
ADCP,ioos:station:wmo:42390:1,2014-09-01T16:17:00Z,26.1290,-94.8980,63.2,169.0,15.4,6.0,'1111122,1111122,1111122' 
ADCP,ioos:station:wmo:42390:1,2014-09-01T17:17:00Z,26.1290,-94.8980,63.2,192.0,13.4,5.8,'1111122,1111122,1111122' 
ADCP,ioos:station:wmo:42390:1,2014-09-01T18:17:00Z,26.1290,-94.8980,63.2,173.0,22.1,7.0,'1111122,1111122,1111122' 
ADCP,ioos:station:wmo:42390:1,2014-09-01T19:17:00Z,26.1290,-94.8980,63.2,265.0,4.5,-0.1,'1111122,1111122,1111122' 
ADCP,ioos:station:wmo:42390:1,2014-09-01T21:17:00Z,26.1290,-94.8980,63.2,176.0,15.7,5.4,'1111122,1111122,1111122' 
ADCP,ioos:station:wmo:42390:1,2014-09-01T22:17:00Z,26.1290,-94.8980,63.2,164.0,11.3,4.4,'1111122,1111122,1111122' 
ADCP,ioos:station:wmo:42390:1,2014-09-01T23:17:00Z,26.1290,-94.8980,63.2,183.0,13.3,2.2,'1111122,1111122,1111122' 
ADCP,ioos:station:wmo:42390:1,2014-09-02T00:17:00Z,26.1290,-94.8980,63.1,173.0,25.3,5.4,'1111122,1111122,1111122' 
ADCP,ioos:station:wmo:42390:1,2014-09-02T01:17:00Z,26.1290,-94.8980,63.1,184.0,16.3,4.4,'1111122,1111122,1111122' 
ADCP,ioos:station:wmo:42390:1,2014-09-02T02:17:00Z,26.1290,-94.8980,63.1,196.0,13.1,3.1,'1111122,1111122,1111122' 
ADCP,ioos:station:wmo:42390:1,2014-09-02T03:17:00Z,26.1290,-94.8980,63.2,193.0,9.3,5.3,'1111122,1111122,1111122' 
ADCP,ioos:station:wmo:42390:1,2014-09-02T04:17:00Z,26.1290,-94.8980,63.2,158.0,13.3,3.7,'1111122,1111122,1111122' 
ADCP,ioos:station:wmo:42390:1,2014-09-02T05:17:00Z,26.1290,-94.8980,63.2,44.0,5.7,1.6,'1111122,1111122,1111122' 
ADCP,ioos:station:wmo:42390:1,2014-09-02T05:37:00Z,26.1290,-94.8980,63.2,333.0,3.0,1.0,'1111122,1111122,1111122' 
ADCP,ioos:station:wmo:42390:1,2014-09-02T08:17:00Z,26.1290,-94.8980,63.2,128.0,4.2,1.5,'1111122,1111122,1111122' 
ADCP,ioos:station:wmo:42390:1,2014-09-02T09:17:00Z,26.1290,-94.8980,63.2,189.0,6.0,0.0,'1111122,1111122,1114422' 
ADCP,ioos:station:wmo:42390:1,2014-09-02T10:17:00Z,26.1290,-94.8980,63.2,28.0,5.8,-0.5,'1111122,1111122,1111122' 
ADCP,ioos:station:wmo:42390:1,2014-09-02T10:57:00Z,26.1290,-94.8980,63.2,158.0,10.7,3.0,'1111122,1111122,1111122' 
ADCP,ioos:station:wmo:42390:1,2014-09-03T05:17:00Z,26.1290,-94.8980,63.1,214.0,3.2,1.4,'1111122,1111122,1111122' 
ADCP,ioos:station:wmo:42390:1,2014-09-03T06:17:00Z,26.1290,-94.8980,63.2,245.0,6.1,-0.6,'1111122,1111122,1111122' 
ADCP,ioos:station:wmo:42390:1,2014-09-03T07:17:00Z,26.1290,-94.8980,63.2,192.0,11.2,1.6,'1111122,1111122,1111122' 
ADCP,ioos:station:wmo:42390:1,2014-09-03T08:17:00Z,26.1290,-94.8980,63.2,239.0,6.6,-0.3,'1111122,1111122,1111122' 
ADCP,ioos:station:wmo:42390:1,2014-09-03T09:17:00Z,26.1290,-94.8980,63.2,224.0,5.7,0.5,'1111122,1111122,1111122' 
ADCP,ioos:station:wmo:42390:1,2014-09-03T10:17:00Z,26.1290,-94.8980,63.2,243.0,2.5,-0.4,'1111122,1111122,1111122' 
ADCP,ioos:station:wmo:42390:1,2014-09-03T11:17:00Z,26.1290,-94.8980,63.2,302.0,4.9,0.2,'1111122,1111122,1111122' 
ADCP,ioos:station:wmo:42390:1,2014-09-03T12:17:00Z,26.1290,-94.8980,63.2,243.0,2.2,2.7,'1111122,1111122,1111122' 
ADCP,ioos:station:wmo:42390:1,2014-09-03T13:17:00Z,26.1290,-94.8980,63.2,182.0,2.4,2.2,'1111122,1111122,1111122' 
ADCP,ioos:station:wmo:42390:1,2014-09-03T14:17:00Z,26.1290,-94.8980,63.2,170.0,6.2,4.9,'1111122,1111122,1111122' 
ADCP,ioos:station:wmo:42390:1,2014-09-03T15:17:00Z,26.1290,-94.8980,63.2,199.0,5.3,1.7,'1111122,1111122,1111122' 
ADCP,ioos:station:wmo:42390:1,2014-09-03T16:17:00Z,26.1290,-94.8980,63.2,263.0,6.1,-0.3,'1111122,1111122,1111122' 
ADCP,ioos:station:wmo:42390:1,2014-09-03T17:17:00Z,26.1290,-94.8980,63.2,285.0,8.2,0.5,'1111122,1111122,1111122' 
ADCP,ioos:station:wmo:42390:1,2014-09-03T18:17:00Z,26.1290,-94.8980,63.2,282.0,6.3,-0.4,'1111122,1111122,1111122' 
ADCP,ioos:station:wmo:42390:1,2014-09-03T19:17:00Z,26.1290,-94.8980,63.2,234.0,5.1,1.1,'1111122,1111122,1111122' 
ADCP,ioos:station:wmo:42390:1,2014-09-03T20:17:00Z,26.1290,-94.8980,63.2,224.0,5.5,1.0,'1111122,1111122,1111122' 
ADCP,ioos:station:wmo:42390:1,2014-09-03T21:17:00Z,26.1290,-94.8980,63.2,212.0,5.2,3.4,'1111122,1111122,1111122' 
ADCP,ioos:station:wmo:42390:1,2014-09-03T22:17:00Z,26.1290,-94.8980,63.2,204.0,8.1,3.0,'1111122,1111122,1111122' 
ADCP,ioos:station:wmo:42390:1,2014-09-03T23:17:00Z,26.1290,-94.8980,63.2,312.0,5.7,1.7,'1111122,1111122,1111122' 
ADCP,ioos:station:wmo:42390:1,2014-09-04T00:17:00Z,26.1290,-94.8980,63.2,232.0,8.0,3.2,'1111122,1111122,1111122' 
ADCP,ioos:station:wmo:42390:1,2014-09-04T01:17:00Z,26.1290,-94.8980,63.2,346.0,6.1,0.0,'1111122,1111122,1114422' 
ADCP,ioos:station:wmo:42390:1,2014-09-04T02:17:00Z,26.1290,-94.8980,63.2,169.0,5.2,4.4,'1111122,1111122,1111122' 
ADCP,ioos:station:wmo:42390:1,2014-09-04T03:17:00Z,26.1290,-94.8980,63.2,178.0,11.5,4.5,'1111122,1111122,1111122' 
ADCP,ioos:station:wmo:42390:1,2014-09-04T04:17:00Z,26.1290,-94.8980,63.2,185.0,10.7,5.7,'1111122,1111122,1111122' 
ADCP,ioos:station:wmo:42390:1,2014-09-04T05:17:00Z,26.1290,-94.8980,63.2,165.0,13.8,6.0,'1111122,1111122,1111122' 
ADCP,ioos:station:wmo:42390:1,2014-09-04T06:17:00Z,26.1290,-94.8980,63.2,183.0,15.0,5.5,'1111122,1111122,1111122' 
ADCP,ioos:station:wmo:42390:1,2014-09-04T07:17:00Z,26.1290,-94.8980,63.2,212.0,7.8,2.5,'1111122,1111122,1111122' 
ADCP,ioos:station:wmo:42390:1,2014-09-04T08:17:00Z,26.1290,-94.8980,63.2,206.0,9.8,1.7,'1111122,1111122,1111122' 
ADCP,ioos:station:wmo:42390:1,2014-09-04T09:17:00Z,26.1290,-94.8980,63.2,214.0,12.5,1.8,'1111122,1111122,1111122' 
ADCP,ioos:station:wmo:42390:1,2014-09-04T11:17:00Z,26.1290,-94.8980,63.2,206.0,5.1,3.3,'1111122,1111122,1111122' 
ADCP,ioos:station:wmo:42390:1,2014-09-04T12:57:00Z,26.1290,-94.8980,63.2,208.0,7.4,0.5,'1111122,1111122,1111122' 
ADCP,ioos:station:wmo:42390:1,2014-09-04T17:17:00Z,26.1290,-94.8980,63.2,186.0,7.7,-0.9,'1111122,1111122,1111122' 
ADCP,ioos:station:wmo:42390:1,2014-09-04T17:47:00Z,26.1290,-94.8980,63.2,190.0,7.0,-0.4,'1111122,1111122,1111122' 
ADCP,ioos:station:wmo:42390:1,2014-09-04T18:57:00Z,26.1290,-94.8980,63.2,173.0,10.1,1.1,'1111122,1111122,1111122' 
ADCP,ioos:station:wmo:42390:1,2014-09-05T19:05:00Z,26.1290,-94.8980,63.2,188.0,7.8,-1.9,'1111122,1111122,1111122' 
ADCP,ioos:station:wmo:42390:1,2014-09-05T20:05:00Z,26.1290,-94.8980,63.2,110.0,7.1,0.0,'1111122,1111122,1114422' 
ADCP,ioos:station:wmo:42390:1,2014-09-05T21:25:00Z,26.1290,-94.8980,63.2,110.0,7.1,-1.4,'1111122,1111122,1111122' 
ADCP,ioos:station:wmo:42390:1,2014-09-05T22:05:00Z,26.1290,-94.8980,63.2,125.0,8.2,-0.6,'1111122,1111122,1111122' 
ADCP,ioos:station:wmo:42390:1,2014-09-05T22:55:00Z,26.1290,-94.8980,63.2,122.0,7.8,0.5,'1111122,1111122,1111122' 
ADCP,ioos:station:wmo:42390:1,2014-09-06T00:05:00Z,26.1290,-94.8980,63.2,23.0,8.7,-1.3,'1111122,1111122,1111122' 
ADCP,ioos:station:wmo:42390:1,2014-09-06T01:05:00Z,26.1290,-94.8980,63.1,41.0,11.1,3.9,'1111122,1111122,1111122' 
ADCP,ioos:station:wmo:42390:1,2014-09-06T02:05:00Z,26.1290,-94.8980,63.2,48.0,8.4,2.5,'1111122,1111122,1111122' 
ADCP,ioos:station:wmo:42390:1,2014-09-06T03:05:00Z,26.1290,-94.8980,63.2,88.0,6.9,4.0,'1111122,1111122,1111122' 
ADCP,ioos:station:wmo:42390:1,2014-09-06T04:05:00Z,26.1290,-94.8980,63.2,128.0,14.7,7.2,'1111122,1111122,1111122' 
ADCP,ioos:station:wmo:42390:1,2014-09-06T05:05:00Z,26.1290,-94.8980,63.2,79.0,10.8,3.7,'1111122,1111122,1111122' 
ADCP,ioos:station:wmo:42390:1,2014-09-06T06:05:00Z,26.1290,-94.8980,63.1,55.0,12.6,0.7,'1111122,1111122,1111122' 
ADCP,ioos:station:wmo:42390:1,2014-09-06T07:05:00Z,26.1290,-94.8980,63.1,47.0,12.4,-1.2,'1111122,1111122,1111122' 
ADCP,ioos:station:wmo:42390:1,2014-09-06T08:05:00Z,26.1290,-94.8980,63.1,54.0,14.5,1.7,'1111122,1111122,1111122' 
ADCP,ioos:station:wmo:42390:1,2014-09-06T08:25:00Z,26.1290,-94.8980,63.2,69.0,9.6,2.2,'1111122,1111122,1111122' 
ADCP,ioos:station:wmo:42390:1,2014-09-06T11:05:00Z,26.1290,-94.8980,63.2,72.0,10.1,0.2,'1111122,1111122,1111122' 
ADCP,ioos:station:wmo:42390:1,2014-09-06T12:15:00Z,26.1290,-94.8980,63.2,107.0,12.1,0.0,'1111122,1111122,1114422' 
ADCP,ioos:station:wmo:42390:1,2014-09-06T13:05:00Z,26.1290,-94.8980,63.2,180.0,0.7,-0.9,'1111122,1111122,1111122' 
ADCP,ioos:station:wmo:42390:1,2014-09-06T14:05:00Z,26.1290,-94.8980,63.2,22.0,9.1,1.0,'1111122,1111122,1111122' 
ADCP,ioos:station:wmo:42390:1,2014-09-06T15:05:00Z,26.1290,-94.8980,63.2,52.0,1.1,2.2,'1111122,1111122,1111122' 
ADCP,ioos:station:wmo:42390:1,2014-09-06T19:05:00Z,26.1290,-94.8980,63.2,326.0,14.0,-1.7,'1111122,1111122,1111122' 
ADCP,ioos:station:wmo:42390:1,2014-09-06T20:05:00Z,26.1290,-94.8980,63.2,90.0,4.0,3.9,'1111122,1111122,1111122' 
ADCP,ioos:station:wmo:42390:1,2014-09-06T21:05:00Z,26.1290,-94.8980,63.2,73.0,1.7,1.1,'1111122,1111122,1111122' 
ADCP,ioos:station:wmo:42390:1,2014-09-06T22:05:00Z,26.1290,-94.8980,63.1,340.0,8.4,1.3,'1111122,1111122,1111122' 
ADCP,ioos:station:wmo:42390:1,2014-09-06T23:05:00Z,26.1290,-94.8980,63.1,34.0,5.8,3.4,'1111122,1111122,1111122' 
ADCP,ioos:station:wmo:42390:1,2014-09-07T00:05:00Z,26.1290,-94.8980,63.2,32.0,6.0,4.6,'1111122,1111122,1111122' 
ADCP,ioos:station:wmo:42390:1,2014-09-07T02:05:00Z,26.1290,-94.8980,63.2,79.0,7.6,2.9,'1111122,1111122,1111122' 
ADCP,ioos:station:wmo:42390:1,2014-09-07T03:05:00Z,26.1290,-94.8980,63.1,53.0,3.6,4.4,'1111122,1111122,1111122' 
ADCP,ioos:station:wmo:42390:1,2014-09-07T04:05:00Z,26.1290,-94.8980,63.1,145.0,11.5,5.4,'1111122,1111122,1111122' 
ADCP,ioos:station:wmo:42390:1,2014-09-07T05:05:00Z,26.1290,-94.8980,63.2,149.0,15.0,6.9,'1111122,1111122,1111122' 
ADCP,ioos:station:wmo:42390:1,2014-09-07T07:05:00Z,26.1290,-94.8980,63.2,102.0,12.1,4.9,'1111122,1111122,1111122' 
ADCP,ioos:station:wmo:42390:1,2014-09-07T08:05:00Z,26.1290,-94.8980,63.2,98.0,8.4,4.6,'1111122,1111122,1111122' 
ADCP,ioos:station:wmo:42390:1,2014-09-07T09:05:00Z,26.1290,-94.8980,63.2,88.0,3.0,1.3,'1111122,1111122,1111122' 
ADCP,ioos:station:wmo:42390:1,2014-09-07T10:05:00Z,26.1290,-94.8980,63.2,81.0,4.7,1.3,'1111122,1111122,1111122' 
ADCP,ioos:station:wmo:42390:1,2014-09-07T11:05:00Z,26.1290,-94.8980,63.2,41.0,5.8,-1.8,'1111122,1111122,1111122' 
ADCP,ioos:station:wmo:42390:1,2014-09-07T12:05:00Z,26.1290,-94.8980,63.2,68.0,6.8,-0.5,'1111122,1111122,1111122' 
ADCP,ioos:station:wmo:42390:1,2014-09-07T13:05:00Z,26.1290,-94.8980,63.2,81.0,8.1,-0.7,'1111122,1111122,1111122' 
ADCP,ioos:station:wmo:42390:1,2014-09-07T14:05:00Z,26.1290,-94.8980,63.1,62.0,12.6,-2.3,'1111122,1111122,1111122' 
ADCP,ioos:station:wmo:42390:1,2014-09-07T15:05:00Z,26.1290,-94.8980,63.1,52.0,10.2,-1.3,'1111122,1111122,1111122' 
ADCP,ioos:station:wmo:42390:1,2014-09-07T16:05:00Z,26.1290,-94.8980,63.1,28.0,4.3,-3.4,'1111122,1111122,1111122' 
ADCP,ioos:station:wmo:42390:1,2014-09-07T17:05:00Z,26.1290,-94.8980,63.1,32.0,7.0,-1.5,'1111122,1111122,1111122' 
ADCP,ioos:station:wmo:42390:1,2014-09-07T18:05:00Z,26.1290,-94.8980,63.1,130.0,6.9,-1.2,'1111122,1111122,1111122' 
ADCP,ioos:station:wmo:42390:1,2014-09-07T19:05:00Z,26.1290,-94.8980,63.1,54.0,6.2,1.1,'1111122,1111122,1111122' 
ADCP,ioos:station:wmo:42390:1,2014-09-07T20:05:00Z,26.1290,-94.8980,63.1,88.0,10.8,2.4,'1111122,1111122,1111122' 
ADCP,ioos:station:wmo:42390:1,2014-09-07T21:05:00Z,26.1290,-94.8980,63.1,44.0,6.3,1.4,'1111122,1111122,1111122' 
ADCP,ioos:station:wmo:42390:1,2014-09-07T22:05:00Z,26.1290,-94.8980,63.2,43.0,12.0,1.8,'1111122,1111122,1111122' 
ADCP,ioos:station:wmo:42390:1,2014-09-08T00:05:00Z,26.1290,-94.8980,63.1,123.0,8.9,4.7,'1111122,1111122,1111122' 
ADCP,ioos:station:wmo:42390:1,2014-09-08T01:05:00Z,26.1290,-94.8980,63.1,99.0,11.4,1.8,'1111122,1111122,1111122' 
ADCP,ioos:station:wmo:42390:1,2014-09-08T02:05:00Z,26.1290,-94.8980,63.1,69.0,13.4,-0.5,'1111122,1111122,1111122' 
ADCP,ioos:station:wmo:42390:1,2014-09-08T03:05:00Z,26.1290,-94.8980,63.1,76.0,15.2,1.1,'1111122,1111122,1111122' 
ADCP,ioos:station:wmo:42390:1,2014-09-08T04:15:00Z,26.1290,-94.8980,63.1,65.0,11.5,0.0,'1111122,1111122,1114422' 
ADCP,ioos:station:wmo:42390:1,2014-09-08T05:05:00Z,26.1290,-94.8980,63.1,93.0,9.7,1.9,'1111122,1111122,1111122' 
ADCP,ioos:station:wmo:42390:1,2014-09-08T05:45:00Z,26.1290,-94.8980,63.1,75.0,8.1,2.0,'1111122,1111122,1111122' 
ADCP,ioos:station:wmo:42390:1,2014-09-08T08:15:00Z,26.1290,-94.8980,63.1,46.0,7.6,1.1,'1111122,1111122,1111122' 
ADCP,ioos:station:wmo:42390:1,2014-09-08T09:05:00Z,26.1290,-94.8980,63.1,35.0,5.7,2.9,'1111122,1111122,1111122' 
ADCP,ioos:station:wmo:42390:1,2014-09-08T11:05:00Z,26.1290,-94.8980,63.1,132.0,5.9,3.1,'1111122,1111122,1111122' 
ADCP,ioos:station:wmo:42390:1,2014-09-08T12:05:00Z,26.1290,-94.8980,63.1,62.0,4.7,-1.6,'1111122,1111122,1111122' 
ADCP,ioos:station:wmo:42390:1,2014-09-08T13:05:00Z,26.1290,-94.8980,63.2,37.0,4.5,-0.9,'1111122,1111122,1111122' 
ADCP,ioos:station:wmo:42390:1,2014-09-08T13:45:00Z,26.1290,-94.8980,63.1,49.0,6.9,0.0,'1111122,1111122,1114422' 
ADCP,ioos:station:wmo:42390:1,2014-09-08T15:05:00Z,26.1290,-94.8980,63.1,357.0,10.0,-4.5,'1111122,1111122,1111122' 
ADCP,ioos:station:wmo:42390:1,2014-09-08T16:05:00Z,26.1290,-94.8980,63.2,20.0,9.9,-4.5,'1111122,1111122,1111122' 
ADCP,ioos:station:wmo:42390:1,2014-09-08T17:05:00Z,26.1290,-94.8980,63.2,9.0,9.8,0.0,'1111122,1111122,1114422' 
ADCP,ioos:station:wmo:42390:1,2014-09-08T18:05:00Z,26.1290,-94.8980,63.1,39.0,5.6,2.3,'1111122,1111122,1111122' 
ADCP,ioos:station:wmo:42390:1,2014-09-08T19:35:00Z,26.1290,-94.8980,63.1,60.0,9.5,2.1,'1111122,1111122,1111122' 
ADCP,ioos:station:wmo:42390:1,2014-09-08T20:15:00Z,26.1290,-94.8980,63.2,35.0,5.2,-0.5,'1111122,1111122,1111122' 
ADCP,ioos:station:wmo:42390:1,2014-09-08T21:05:00Z,26.1290,-94.8980,63.1,50.0,14.7,0.9,'1111122,1111122,1111122' 
ADCP,ioos:station:wmo:42390:1,2014-09-08T23:05:00Z,26.1290,-94.8980,63.1,21.0,10.3,-1.4,'1111122,1111122,1111122' 
ADCP,ioos:station:wmo:42390:1,2014-09-09T00:05:00Z,26.1290,-94.8980,63.1,57.0,11.8,1.0,'1111122,1111122,1111122' 
ADCP,ioos:station:wmo:42390:1,2014-09-09T01:05:00Z,26.1290,-94.8980,63.1,44.0,8.8,-3.0,'1111122,1111122,1111122' 
ADCP,ioos:station:wmo:42390:1,2014-09-09T02:05:00Z,26.1290,-94.8980,63.1,80.0,9.6,-0.5,'1111122,1111122,1111122' 
ADCP,ioos:station:wmo:42390:1,2014-09-09T03:05:00Z,26.1290,-94.8980,63.2,56.0,16.9,-0.2,'1111122,1111122,1111122' 
ADCP,ioos:station:wmo:42390:1,2014-09-09T04:05:00Z,26.1290,-94.8980,63.2,59.0,11.7,-0.6,'1111122,1111122,1111122' 
ADCP,ioos:station:wmo:42390:1,2014-09-09T05:05:00Z,26.1290,-94.8980,63.1,53.0,15.7,-3.4,'1111122,1111122,1111122' 
ADCP,ioos:station:wmo:42390:1,2014-09-09T05:45:00Z,26.1290,-94.8980,63.2,25.0,16.7,-3.4,'1111122,1111122,1111122' 
ADCP,ioos:station:wmo:42390:1,2014-09-09T08:05:00Z,26.1290,-94.8980,63.2,39.0,9.5,0.9,'1111122,1111122,1111122' 
ADCP,ioos:station:wmo:42390:1,2014-09-09T09:05:00Z,26.1290,-94.8980,63.1,22.0,15.9,-1.9,'1111122,1111122,1111122' 
ADCP,ioos:station:wmo:42390:1,2014-09-09T10:05:00Z,26.1290,-94.8980,63.2,46.0,7.0,2.3,'1111122,1111122,1111122' 
ADCP,ioos:station:wmo:42390:1,2014-09-09T10:45:00Z,26.1290,-94.8980,63.1,37.0,5.6,1.4,'1111122,1111122,1111122' 
ADCP,ioos:station:wmo:42390:1,2014-09-10T05:05:00Z,26.1290,-94.8980,63.1,58.0,4.6,0.5,'1111122,1111122,1111122' 
ADCP,ioos:station:wmo:42390:1,2014-09-10T05:55:00Z,26.1290,-94.8980,63.1,15.0,13.0,-1.6,'1111122,1111122,1111122' 
ADCP,ioos:station:wmo:42390:1,2014-09-10T08:05:00Z,26.1290,-94.8980,63.1,5.0,4.2,2.3,'1111122,1111122,1111122' 
ADCP,ioos:station:wmo:42390:1,2014-09-10T09:05:00Z,26.1290,-94.8980,63.1,28.0,10.0,1.4,'1111122,1111122,1111122' 
ADCP,ioos:station:wmo:42390:1,2014-09-10T09:25:00Z,26.1290,-94.8980,63.1,21.0,7.7,1.8,'1111122,1111122,1111122' 
ADCP,ioos:station:wmo:42390:1,2014-09-10T13:10:00Z,26.1290,-94.8980,63.1,6.0,4.4,-1.7,'1111122,1111122,1111122' 
ADCP,ioos:station:wmo:42390:1,2014-09-10T14:10:00Z,26.1290,-94.8980,63.1,8.0,9.2,-3.2,'1111122,1111122,1111122' 
ADCP,ioos:station:wmo:42390:1,2014-09-10T15:10:00Z,26.1290,-94.8980,63.1,185.0,3.2,0.2,'1111122,1111122,1111122' 
ADCP,ioos:station:wmo:42390:1,2014-09-10T16:10:00Z,26.1290,-94.8980,63.1,325.0,4.0,-0.2,'1111122,1111122,1111122' 
ADCP,ioos:station:wmo:42390:1,2014-09-10T17:10:00Z,26.1290,-94.8980,63.1,355.0,3.7,1.1,'1111122,1111122,1111122' 
ADCP,ioos:station:wmo:42390:1,2014-09-10T18:10:00Z,26.1290,-94.8980,63.1,99.0,4.7,1.6,'1111122,1111122,1111122' 
ADCP,ioos:station:wmo:42390:1,2014-09-10T19:10:00Z,26.1290,-94.8980,63.1,167.0,14.3,5.3,'1111122,1111122,1111122' 
ADCP,ioos:station:wmo:42390:1,2014-09-10T20:10:00Z,26.1290,-94.8980,63.1,349.0,7.3,2.0,'1111122,1111122,1111122' 
ADCP,ioos:station:wmo:42390:1,2014-09-10T21:10:00Z,26.1290,-94.8980,63.1,2.0,6.4,4.2,'1111122,1111122,1111122' 
ADCP,ioos:station:wmo:42390:1,2014-09-10T22:10:00Z,26.1290,-94.8980,63.1,326.0,1.8,3.3,'1111122,1111122,1111122' 
ADCP,ioos:station:wmo:42390:1,2014-09-10T23:10:00Z,26.1290,-94.8980,63.1,333.0,7.3,2.8,'1111122,1111122,1111122' 
ADCP,ioos:station:wmo:42390:1,2014-09-11T00:10:00Z,26.1290,-94.8980,63.1,301.0,7.2,2.8,'1111122,1111122,1111122' 
ADCP,ioos:station:wmo:42390:1,2014-09-11T01:10:00Z,26.1290,-94.8980,63.1,304.0,19.0,2.1,'1111122,1111122,1111122' 
ADCP,ioos:station:wmo:42390:1,2014-09-11T02:10:00Z,26.1290,-94.8980,63.1,288.0,16.3,2.7,'1111122,1111122,1111122' 
ADCP,ioos:station:wmo:42390:1,2014-09-11T03:10:00Z,26.1290,-94.8980,63.2,295.0,15.3,2.6,'1111122,1111122,1111122' 
ADCP,ioos:station:wmo:42390:1,2014-09-11T04:10:00Z,26.1290,-94.8980,63.2,319.0,18.6,-1.4,'1111122,1111122,1111122' 
ADCP,ioos:station:wmo:42390:1,2014-09-11T05:10:00Z,26.1290,-94.8980,63.1,312.0,18.7,-0.3,'1111122,1111122,1111122' 
ADCP,ioos:station:wmo:42390:1,2014-09-11T05:50:00Z,26.1290,-94.8980,63.2,286.0,8.2,6.1,'1111122,1111122,1111122' 
ADCP,ioos:station:wmo:42390:1,2014-09-11T08:10:00Z,26.1290,-94.8980,63.2,264.0,12.9,4.8,'1111122,1111122,1111122' 
ADCP,ioos:station:wmo:42390:1,2014-09-11T09:10:00Z,26.1290,-94.8980,63.2,297.0,14.5,5.6,'1111122,1111122,1111122' 
ADCP,ioos:station:wmo:42390:1,2014-09-11T10:10:00Z,26.1290,-94.8980,63.2,307.0,14.1,1.5,'1111122,1111122,1111122' 
ADCP,ioos:station:wmo:42390:1,2014-09-11T11:20:00Z,26.1290,-94.8980,63.2,276.0,13.9,4.9,'1111122,1111122,1111122' 
ADCP,ioos:station:wmo:42390:1,2014-09-11T12:10:00Z,26.1290,-94.8980,63.2,246.0,15.6,1.8,'1111122,1111122,1111122' 
ADCP,ioos:station:wmo:42390:1,2014-09-11T13:30:00Z,26.1290,-94.8980,63.2,215.0,11.0,7.0,'1111122,1111122,1111122' 
ADCP,ioos:station:wmo:42390:1,2014-09-11T20:10:00Z,26.1290,-94.8980,63.2,267.0,3.4,4.0,'1111122,1111122,1111122' 
ADCP,ioos:station:wmo:42390:1,2014-09-12T00:50:00Z,26.1290,-94.8980,63.2,245.0,5.1,8.2,'1111122,1111122,1111122' 
ADCP,ioos:station:wmo:42390:1,2014-09-12T01:40:00Z,26.1290,-94.8980,63.2,200.0,3.0,9.5,'1111122,1111122,1111122' 
ADCP,ioos:station:wmo:42390:1,2014-09-12T06:10:00Z,26.1290,-94.8980,63.2,212.0,6.2,10.9,'1111122,1111122,1111122' 
ADCP,ioos:station:wmo:42390:1,2014-09-12T08:10:00Z,26.1290,-94.8980,63.2,300.0,4.8,8.2,'1111122,1111122,1111122' 
ADCP,ioos:station:wmo:42390:1,2014-09-12T10:10:00Z,26.1290,-94.8980,63.2,312.0,13.0,6.2,'1111122,1111122,1111122' 
ADCP,ioos:station:wmo:42390:1,2014-09-12T11:10:00Z,26.1290,-94.8980,63.2,277.0,11.5,9.9,'1111122,1111122,1111122' 
ADCP,ioos:station:wmo:42390:1,2014-09-12T12:10:00Z,26.1290,-94.8980,63.2,325.0,15.2,2.9,'1111122,1111122,1111122' 
ADCP,ioos:station:wmo:42390:1,2014-09-12T13:10:00Z,26.1290,-94.8980,63.2,298.0,5.0,5.4,'1111122,1111122,1111122' 
ADCP,ioos:station:wmo:42390:1,2014-09-12T14:10:00Z,26.1290,-94.8980,63.2,331.0,14.0,1.5,'1111122,1111122,1111122' 
ADCP,ioos:station:wmo:42390:1,2014-09-12T15:10:00Z,26.1290,-94.8980,63.2,352.0,7.1,1.5,'1111122,1111122,1111122' 
ADCP,ioos:station:wmo:42390:1,2014-09-12T16:10:00Z,26.1290,-94.8980,63.2,174.0,8.1,3.1,'1111122,1111122,1111122' 
ADCP,ioos:station:wmo:42390:1,2014-09-12T17:10:00Z,26.1290,-94.8980,63.2,193.0,7.4,2.3,'1111122,1111122,1111122' 
ADCP,ioos:station:wmo:42390:1,2014-09-12T18:10:00Z,26.1290,-94.8980,63.2,45.0,1.4,-1.7,'1111122,1111122,1111122' 
ADCP,ioos:station:wmo:42390:1,2014-09-12T19:10:00Z,26.1290,-94.8980,63.2,327.0,12.2,-2.8,'1111122,1111122,1111122' 
ADCP,ioos:station:wmo:42390:1,2014-09-12T20:10:00Z,26.1290,-94.8980,63.1,179.0,7.1,2.1,'1111122,1111122,1111122' 
ADCP,ioos:station:wmo:42390:1,2014-09-12T21:10:00Z,26.1290,-94.8980,63.1,63.0,2.7,0.4,'1111122,1111122,1111122' 
ADCP,ioos:station:wmo:42390:1,2014-09-12T22:10:00Z,26.1290,-94.8980,63.1,253.0,2.1,6.5,'1111122,1111122,1111122' 
ADCP,ioos:station:wmo:42390:1,2014-09-12T23:10:00Z,26.1290,-94.8980,63.1,16.0,1.8,5.6,'1111122,1111122,1111122' 
ADCP,ioos:station:wmo:42390:1,2014-09-13T00:10:00Z,26.1290,-94.8980,63.2,340.0,14.5,2.9,'1111122,1111122,1111122' 
ADCP,ioos:station:wmo:42390:1,2014-09-13T01:10:00Z,26.1290,-94.8980,63.2,339.0,9.6,7.0,'1111122,1111122,1111122' 
ADCP,ioos:station:wmo:42390:1,2014-09-13T02:10:00Z,26.1290,-94.8980,63.2,323.0,6.8,9.0,'1111122,1111122,1111122' 
ADCP,ioos:station:wmo:42390:1,2014-09-13T04:10:00Z,26.1290,-94.8980,63.2,316.0,12.0,6.3,'1111122,1111122,1111122' 
ADCP,ioos:station:wmo:42390:1,2014-09-13T05:10:00Z,26.1290,-94.8980,63.2,315.0,18.0,5.8,'1111122,1111122,1111122' 
ADCP,ioos:station:wmo:42390:1,2014-09-13T06:10:00Z,26.1290,-94.8980,63.2,294.0,11.9,6.9,'1111122,1111122,1111122' 
ADCP,ioos:station:wmo:42390:1,2014-09-13T07:10:00Z,26.1290,-94.8980,63.2,293.0,15.8,6.3,'1111122,1111122,1111122' 
ADCP,ioos:station:wmo:42390:1,2014-09-13T08:10:00Z,26.1290,-94.8980,63.1,299.0,16.0,8.2,'1111122,1111122,1111122' 
ADCP,ioos:station:wmo:42390:1,2014-09-13T10:10:00Z,26.1290,-94.8980,63.1,315.0,23.3,5.2,'1111122,1111122,1111122' 
ADCP,ioos:station:wmo:42390:1,2014-09-13T11:20:00Z,26.1290,-94.8980,63.2,279.0,21.6,7.9,'1111122,1111122,1111122' 
ADCP,ioos:station:wmo:42390:1,2014-09-13T12:10:00Z,26.1290,-94.8980,63.2,309.0,17.6,0.0,'1111122,1111122,1114422' 
ADCP,ioos:station:wmo:42390:1,2014-09-13T13:10:00Z,26.1290,-94.8980,63.2,320.0,16.5,4.8,'1111122,1111122,1111122' 
ADCP,ioos:station:wmo:42390:1,2014-09-13T14:10:00Z,26.1290,-94.8980,63.2,294.0,12.0,6.7,'1111122,1111122,1111122' 
ADCP,ioos:station:wmo:42390:1,2014-09-13T15:10:00Z,26.1290,-94.8980,63.2,330.0,15.5,2.3,'1111122,1111122,1111122' 
ADCP,ioos:station:wmo:42390:1,2014-09-13T16:10:00Z,26.1290,-94.8980,63.2,284.0,6.3,1.2,'1111122,1111122,1111122' 
ADCP,ioos:station:wmo:42390:1,2014-09-13T17:10:00Z,26.1290,-94.8980,63.2,314.0,4.2,5.5,'1111122,1111122,1111122' 
ADCP,ioos:station:wmo:42390:1,2014-09-13T18:10:00Z,26.1290,-94.8980,63.2,309.0,3.2,4.7,'1111122,1111122,1111122' 